Location: Unspecified
(0.0000°N, 0.0000°E)
Time: 22:36:36
(UTC+00:00)

Hubble Space Telescope - Pass Details

Date: 25 April 2018
Orbit: 537 x 541 km, 28.5° (Epoch: 24 April)

Event Time Altitude Azimuth Distance (km) Brightness Sun altitude
Exits shadow 05:21:26 - 284° (WNW) 1,892 3.0 -8.9°
Reaches altitude 10° 05:21:43 10° 283° (WNW) 1,783 2.9 -8.8°
Maximum altitude 05:25:40 44° 210° (SSW) 747 1.2 -7.9°
Drops below altitude 10° 05:29:37 10° 137° (SE) 1,785 3.9 -6.9°
Sets 05:31:57 0° 131° (SE) 2,677 4.9 -6.3°
